This demonstration page uses our WeatherBlox Daily Observations layout. Learn more.

Left ArrowRight Arrow

Hourly Observations for June 26, 2016

Temp ( °F °C ) Dew Point ( °F °C ) Humidity (%) Winds ( mph kmh ) Pressure ( in mb ) Visibility ( mi km ) Precip ( " mm )
12:52 am 00:52 Clear 76 24.4 69 20.6 79 79 S 7 11 30.02 1017 10 16 0.00 0.00
1:52 am 01:52 Clear 76 24.4 68 20 77 77 S 6 9 30.01 1016 10 16 0.00 0.00
2:52 am 02:52 Clear 75 23.9 68 20 79 79 S 6 9 30.01 1016 10 16 0.00 0.00
3:52 am 03:52 Clear 74 23.3 68 20 82 82 S 7 11 30.03 1017 10 16 0.00 0.00
4:52 am 04:52 Mostly Clear 73 22.8 68 20 84 84 S 7 11 30.04 1017 10 16 0.00 0.00
5:52 am 05:52 Clear 73 22.8 68 20 84 84 S 7 11 30.03 1017 10 16 0.00 0.00
6:52 am 06:52 Sunny 77 25 70 21.1 79 79 SW 8 13 30.05 1018 10 16 0.00 0.00
7:52 am 07:52 Sunny 80 26.7 71 21.7 74 74 SW 13 20 30.06 1018 10 16 0.00 0.00
8:52 am 08:52 Mostly Sunny 82 27.8 71 21.7 69 69 SW 15 24 30.07 1018 10 16 0.00 0.00
9:52 am 09:52 Sunny 85 29.4 72 22.2 65 65 SW 14 22 30.07 1018 10 16 0.00 0.00
10:52 am 10:52 Sunny 85 29.4 72 22.2 65 65 SW 12 19 30.07 1018 10 16 0.00 0.00
11:52 am 11:52 Mostly Sunny 87 30.6 72 22.2 61 61 W 10 17 30.07 1018 10 16 0.00 0.00
12:52 pm 12:52 Mostly Sunny 89 31.7 72 22.2 57 57 WSW 10 17 30.06 1018 10 16 0.00 0.00
1:52 pm 13:52 Mostly Sunny 90 32.2 71 21.7 54 54 WSW 10 17 30.04 1017 10 16 0.00 0.00
2:52 pm 14:52 Mostly Cloudy 89 31.7 72 22.2 57 57 NW 6 9 30.02 1017 10 16 0.00 0.00
3:52 pm 15:52 Mostly Sunny 91 32.8 72 22.2 54 54 W 9 15 30.00 1016 10 16 0.00 0.00
4:52 pm 16:52 Sunny 91 32.8 70 21.1 50 50 WSW 8 13 29.99 1016 10 16 0.00 0.00
5:52 pm 17:52 Mostly Cloudy 89 31.7 71 21.7 55 55 N 9 15 29.99 1016 10 16 0.00 0.00
6:11 pm 18:11 Mostly Cloudy with Nearby Thunderstorms 82 27.8 72 22.2 72 72 NNE 18 30 29.97 1015 10 16 0.00 0.00
6:26 pm 18:26 Mostly Cloudy 79 26 70 21 74 74 NNE 17 28 30.00 1016 10 16 0.00 0.00
6:40 pm 18:40 Mostly Cloudy with Nearby Thunderstorms 79 26 70 21 74 74 ENE 17 28 30.03 1017 10 16 0.00 0.00
6:52 pm 18:52 Cloudy 78 25.6 70 21.1 76 76 NE 16 26 30.06 1018 10 16 0.00 0.00
7:01 pm 19:01 Cloudy with Thunderstorms 78 25.6 70 21.1 76 76 N 12 19 30.06 1018 10 16 0.00 0.00
7:12 pm 19:12 Cloudy 79 26 70 21 74 74 NNW 10 17 30.06 1018 10 16 0.00 0.00
7:18 pm 19:18 Cloudy with Nearby Thunderstorms 77 25 70 21 79 79 N 12 19 30.06 1018 10 16 0.00 0.00
7:30 pm 19:30 Mostly Cloudy with Thunderstorms 79 26 68 20 70 70 N 14 22 30.06 1018 10 16 0.00 0.00
7:52 pm 19:52 Partly Cloudy with Nearby Thunderstorms 77 25 68 20 74 74 NE 13 20 30.08 1019 10 16 0.00 0.00
8:15 pm 20:15 Partly Cloudy 76 24.4 68 20 77 77 E 9 15 30.06 1018 10 16 0.00 0.00
8:52 pm 20:52 Clear 76 24.4 70 21.1 82 82 Calm 30.05 1018 10 16 0.00 0.00
9:52 pm 21:52 Mostly Clear 74 23.3 70 21.1 88 88 SW 10 17 30.03 1017 10 16 0.00 0.03
10:52 pm 22:52 Clear 74 23.3 69 20.6 85 85 S 5 7 30.04 1017 10 16 0.00 0.00
11:52 pm 23:52 Clear 74 23.3 69 20.6 85 85 WNW 3 6 30.09 1019 10 16 0.00 0.00

Powered by AerisWeather